This is the latest recevied weather packets stored in our database for station/object DJ2DS-13. If no packets are shown the sender has not sent any weather packets the latest 10 day(s).
| Time | Temp. | Humidity | Pressure | Rain* | Wind** | Luminosity | Snow |
|---|---|---|---|---|---|---|---|
| 1778058160 | 12.22° C | 72% | 1008.1 hPa | 0 mm | - | 315 W/m² | - |
| 1778057860 | 11.67° C | 70% | 1008.1 hPa | 0 mm | - | 324 W/m² | - |
| 1778057561 | 11.67° C | 70% | 1008.1 hPa | 0 mm | - | 304 W/m² | - |
| 1778057260 | 11.67° C | 71% | 1008.1 hPa | 0 mm | - | 294 W/m² | - |
| 1778056961 | 11.67° C | 72% | 1008.1 hPa | 0 mm | - | 278 W/m² | - |
| 1778056660 | 11.67° C | 75% | 1008.1 hPa | 0 mm | - | 267 W/m² | - |
| 1778056360 | 11.67° C | 75% | 1008.1 hPa | 0 mm | - | 241 W/m² | - |
| 1778056060 | 11.11° C | 74% | 1008.1 hPa | 0 mm | - | 218 W/m² | - |
| 1778055760 | 11.11° C | 75% | 1008.1 hPa | 0 mm | - | 202 W/m² | - |
| 1778055460 | 11.11° C | 75% | 1008.1 hPa | 0 mm | - | 193 W/m² | - |
| 1778055160 | 11.11° C | 76% | 1008 hPa | 0 mm | - | 190 W/m² | - |
| 1778054859 | 11.11° C | 75% | 1008.1 hPa | 0 mm | - | 183 W/m² | - |
| 1778054557 | 11.11° C | 77% | 1008 hPa | 0 mm | - | 174 W/m² | - |
| 1778054256 | 11.11° C | 76% | 1008 hPa | 0 mm | - | 167 W/m² | - |
| 1778053954 | 11.11° C | 77% | 1007.9 hPa | 0 mm | - | 157 W/m² | - |
| 1778053651 | 11.11° C | 78% | 1007.9 hPa | 0 mm | - | 155 W/m² | - |
| 1778053353 | 10.56° C | 78% | 1007.9 hPa | 0 mm | - | 157 W/m² | - |
| 1778053052 | 10.56° C | 78% | 1007.9 hPa | 0 mm | - | 153 W/m² | - |
| 1778052753 | 10.56° C | 78% | 1007.9 hPa | 0 mm | - | 148 W/m² | - |
| 1778052451 | 10.56° C | 79% | 1007.8 hPa | 0 mm | - | 144 W/m² | - |
| 1778052150 | 10.56° C | 78% | 1007.8 hPa | 0 mm | - | 150 W/m² | - |
| 1778051850 | 10.56° C | 79% | 1007.8 hPa | 0 mm | - | 155 W/m² | - |
| 1778051549 | 10.56° C | 80% | 1007.7 hPa | 0 mm | - | 155 W/m² | - |
| 1778051248 | 10.56° C | 80% | 1007.8 hPa | 0 mm | - | 150 W/m² | - |
| 1778050948 | 10.56° C | 81% | 1007.7 hPa | 0 mm | - | 142 W/m² | - |
* Rain latest hour (hover to see other rain measurements)
** Current wind speed in m/s (hover to see current wind gust speed)